| time (UTC) | temp C | wind direction | speed KPH | gust KPH | rain 1hr cm | rain 24hr cm | rain mn cm | humidity % | barometer mb |
| 20260906214336 | 32 | 110 | 8.0 | 8.0 | 0.00 | 0.00 | 0.00 | 30 | 1016.0 |
| 20260906213835 | 32 | 36 | 3.2 | 11.3 | 0.00 | 0.00 | 0.00 | 30 | 1015.8 |
| 20260906213336 | 33 | 129 | 3.2 | 17.7 | 0.00 | 0.00 | 0.00 | 30 | 1016.3 |
| 20260906212833 | 34 | 188 | 3.2 | 14.5 | 0.00 | 0.00 | 0.00 | 28 | 1016.1 |
| 20260906212328 | 33 | 180 | 4.8 | 8.0 | 0.00 | 0.00 | 0.00 | 30 | 1016.2 |
| 20260906211828 | 31 | 90 | 6.4 | 16.1 | 0.00 | 0.00 | 0.00 | 32 | 1016.1 |
| 20260906211323 | 31 | 88 | 8.0 | 11.3 | 0.00 | 0.00 | 0.00 | 35 | 1016.4 |
| 20260906210818 | 31 | 40 | 4.8 | 11.3 | 0.00 | 0.00 | 0.00 | 34 | 1016.5 |
| 20260906210318 | 31 | 75 | 4.8 | 12.9 | 0.00 | 0.00 | 0.00 | 33 | 1016.3 |
| 20260906205814 | 32 | 132 | 9.7 | 20.9 | 0.00 | 0.00 | 0.00 | 32 | 1016.3 |
| 20260906205310 | 32 | 60 | 1.6 | 11.3 | 0.00 | 0.00 | 0.00 | 31 | 1016.7 |
| 20260906204806 | 32 | 46 | 8.0 | 17.7 | 0.00 | 0.00 | 0.00 | 31 | 1016.7 |
| 20260906204304 | 31 | 13 | 11.3 | 19.3 | 0.00 | 0.00 | 0.00 | 32 | 1016.9 |
| 20260906203804 | 31 | 60 | 3.2 | 11.3 | 0.00 | 0.00 | 0.00 | 32 | 1016.9 |
| 20260906203300 | 32 | 154 | 1.6 | 11.3 | 0.00 | 0.00 | 0.00 | 31 | 1017.1 |
| 20260906202756 | 32 | 128 | 4.8 | 8.0 | 0.00 | 0.00 | 0.00 | 32 | 1016.8 |
| 20260906202256 | 32 | 226 | 8.0 | 9.7 | 0.00 | 0.00 | 0.00 | 31 | 1016.8 |
| 20260906201750 | 31 | 176 | 3.2 | 12.9 | 0.00 | 0.00 | 0.00 | 33 | 1017.3 |
| 20260906201250 | 30 | 16 | 8.0 | 14.5 | 0.00 | 0.00 | 0.00 | 34 | 1017.3 |
| 20260906200746 | 30 | 38 | 8.0 | 16.1 | 0.00 | 0.00 | 0.00 | 35 | 1017.3 |
| 20260906200241 | 31 | 70 | 8.0 | 9.7 | 0.00 | 0.00 | 0.00 | 34 | 1017.4 |
| 20260906195737 | 30 | 254 | 8.0 | 12.9 | 0.00 | 0.00 | 0.00 | 35 | 1017.4 |
| 20260906195233 | 31 | 40 | 14.5 | 17.7 | 0.00 | 0.00 | 0.00 | 34 | 1017.6 |
| 20260906194729 | 30 | 266 | 4.8 | 9.7 | 0.00 | 0.00 | 0.00 | 35 | 1017.6 |
| 20260906194224 | 30 | 60 | 11.3 | 14.5 | 0.00 | 0.00 | 0.00 | 34 | 1017.7 |
| 20260906193719 | 30 | 37 | 4.8 | 16.1 | 0.00 | 0.00 | 0.00 | 36 | 1017.7 |
| 20260906193214 | 30 | 128 | 6.4 | 8.0 | 0.00 | 0.00 | 0.00 | 36 | 1017.8 |
| 20260906192710 | 30 | 128 | 8.0 | 9.7 | 0.00 | 0.00 | 0.00 | 34 | 1018.1 |
| 20260906192209 | 30 | 157 | 8.0 | 14.5 | 0.00 | 0.00 | 0.00 | 35 | 1018.2 |
| 20260906191704 | 29 | 332 | 4.8 | 12.9 | 0.00 | 0.00 | 0.00 | 38 | 1018.0 |
| 20260906191203 | 28 | 354 | 8.0 | 8.0 | 0.00 | 0.00 | 0.00 | 37 | 1018.0 |
| 20260906190658 | 29 | 65 | 11.3 | 17.7 | 0.00 | 0.00 | 0.00 | 36 | 1018.2 |
| 20260906190153 | 29 | 149 | 8.0 | 8.0 | 0.00 | 0.00 | 0.00 | 37 | 1018.4 |
| 20260906185652 | 28 | 31 | 6.4 | 14.5 | 0.00 | 0.00 | 0.00 | 39 | 1018.4 |
| 20260906185151 | 28 | 55 | 4.8 | 16.1 | 0.00 | 0.00 | 0.00 | 39 | 1018.7 |
| 20260906184645 | 28 | 232 | 6.4 | 8.0 | 0.00 | 0.00 | 0.00 | 37 | 1018.8 |
| 20260906184142 | 29 | 115 | 6.4 | 6.4 | 0.00 | 0.00 | 0.00 | 36 | 1018.8 |
| 20260906183637 | 28 | 82 | 4.8 | 8.0 | 0.00 | 0.00 | 0.00 | 36 | 1018.9 |
| 20260906183133 | 28 | 203 | 1.6 | 12.9 | 0.00 | 0.00 | 0.00 | 38 | 1018.9 |
| 20260906182632 | 28 | 128 | 4.8 | 9.7 | 0.00 | 0.00 | 0.00 | 39 | 1019.0 |
| 20260906182129 | 28 | 353 | 3.2 | 6.4 | 0.00 | 0.00 | 0.00 | 40 | 1019.1 |
| 20260906181624 | 28 | 0 | 1.6 | 4.8 | 0.00 | 0.00 | 0.00 | 41 | 1019.3 |
| 20260906181120 | 27 | 93 | 6.4 | 9.7 | 0.00 | 0.00 | 0.00 | 41 | 1019.5 |
| 20260906180615 | 27 | 19 | 4.8 | 9.7 | 0.00 | 0.00 | 0.00 | 44 | 1019.6 |
| 20260906180114 | 28 | 71 | 3.2 | 6.4 | 0.00 | 0.00 | 0.00 | 44 | 1019.7 |
| 20260906175613 | 27 | 172 | 1.6 | 4.8 | 0.00 | 0.00 | 0.00 | 44 | 1019.7 |
| 20260906175108 | 26 | 229 | 4.8 | 8.0 | 0.00 | 0.00 | 0.00 | 45 | 1020.0 |
| 20260906174606 | 27 | 236 | 4.8 | 6.4 | 0.00 | 0.00 | 0.00 | 44 | 1019.8 |
| 20260906174101 | 26 | 247 | 3.2 | 6.4 | 0.00 | 0.00 | 0.00 | 46 | 1020.1 |
| 20260906173556 | 26 | 8 | 4.8 | 6.4 | 0.00 | 0.00 | 0.00 | 47 | 1020.2 |
| 20260906173052 | 26 | 345 | 3.2 | 4.8 | 0.00 | 0.00 | 0.00 | 49 | 1020.1 |
| 20260906172546 | 26 | 15 | 3.2 | 8.0 | 0.00 | 0.00 | 0.00 | 49 | 1020.3 |
| 20260906172042 | 25 | 222 | 4.8 | 11.3 | 0.00 | 0.00 | 0.00 | 50 | 1020.4 |
| 20260906171542 | 25 | 268 | 8.0 | 8.0 | 0.00 | 0.00 | 0.00 | 50 | 1020.2 |
| 20260906171037 | 25 | 237 | 3.2 | 4.8 | 0.00 | 0.00 | 0.00 | 50 | 1020.7 |
| 20260906170533 | 25 | 15 | 3.2 | 8.0 | 0.00 | 0.00 | 0.00 | 52 | 1020.4 |
| 20260906170032 | 25 | 312 | 6.4 | 6.4 | 0.00 | 0.00 | 0.00 | 52 | 1020.7 |
| 20260906165529 | 25 | 238 | 4.8 | 11.3 | 0.00 | 0.00 | 0.00 | 53 | 1020.8 |
| 20260906165024 | 24 | 276 | 4.8 | 8.0 | 0.00 | 0.00 | 0.00 | 55 | 1020.9 |
| 20260906164523 | 24 | 210 | 4.8 | 9.7 | 0.00 | 0.00 | 0.00 | 56 | 1020.9 |
| 20260906164019 | 25 | 336 | 3.2 | 6.4 | 0.00 | 0.00 | 0.00 | 56 | 1020.9 |
| 20260906163514 | 24 | 346 | 0.0 | 6.4 | 0.00 | 0.00 | 0.00 | 57 | 1020.8 |
| 20260906163009 | 23 | 0 | 3.2 | 8.0 | 0.00 | 0.00 | 0.00 | 59 | 1020.8 |
| 20260906162506 | 23 | 286 | 6.4 | 8.0 | 0.00 | 0.00 | 0.00 | 60 | 1020.8 |
| 20260906162001 | 23 | 261 | 9.7 | 12.9 | 0.00 | 0.00 | 0.00 | 60 | 1020.8 |
| 20260906161456 | 22 | 259 | 8.0 | 8.0 | 0.00 | 0.00 | 0.00 | 62 | 1020.7 |
| 20260906160955 | 23 | 290 | 3.2 | 6.4 | 0.00 | 0.00 | 0.00 | 61 | 1020.9 |
| 20260906160454 | 23 | 41 | 3.2 | 4.8 | 0.00 | 0.00 | 0.00 | 61 | 1020.7 |
| 20260906155952 | 22 | 234 | 1.6 | 9.7 | 0.00 | 0.00 | 0.00 | 62 | 1020.8 |
| 20260906155451 | 22 | 244 | 6.4 | 8.0 | 0.00 | 0.00 | 0.00 | 63 | 1020.7 |
| 20260906154947 | 22 | 332 | 8.0 | 8.0 | 0.00 | 0.00 | 0.00 | 64 | 1020.8 |
| 20260906154443 | 22 | 258 | 6.4 | 8.0 | 0.00 | 0.00 | 0.00 | 65 | 1020.8 |
| 20260906153941 | 22 | 251 | 6.4 | 16.1 | 0.00 | 0.00 | 0.00 | 65 | 1020.7 |
| 20260906153440 | 22 | 311 | 3.2 | 6.4 | 0.00 | 0.00 | 0.00 | 64 | 1021.0 |
| 20260906152936 | 22 | 262 | 0.0 | 3.2 | 0.00 | 0.00 | 0.00 | 67 | 1021.0 |
| 20260906152435 | 21 | 299 | 3.2 | 9.7 | 0.00 | 0.00 | 0.00 | 68 | 1021.0 |
| 20260906151934 | 21 | 313 | 4.8 | 8.0 | 0.00 | 0.00 | 0.00 | 69 | 1020.9 |
| 20260906151430 | 21 | 267 | 6.4 | 11.3 | 0.00 | 0.00 | 0.00 | 71 | 1021.0 |
| 20260906150926 | 21 | 276 | 4.8 | 6.4 | 0.00 | 0.00 | 0.00 | 70 | 1021.1 |
| 20260906150420 | 20 | 259 | 4.8 | 9.7 | 0.00 | 0.00 | 0.00 | 72 | 1021.0 |
| 20260906145920 | 20 | 260 | 8.0 | 8.0 | 0.00 | 0.00 | 0.00 | 72 | 1020.9 |
| 20260906145419 | 20 | 336 | 3.2 | 9.7 | 0.00 | 0.00 | 0.00 | 74 | 1020.9 |
| 20260906144914 | 20 | 270 | 4.8 | 6.4 | 0.00 | 0.00 | 0.00 | 74 | 1020.9 |
| 20260906144409 | 20 | 258 | 4.8 | 11.3 | 0.00 | 0.00 | 0.00 | 75 | 1020.8 |
| 20260906143904 | 20 | 283 | 6.4 | 14.5 | 0.00 | 0.00 | 0.00 | 76 | 1021.0 |
| 20260906143400 | 20 | 245 | 8.0 | 8.0 | 0.00 | 0.00 | 0.00 | 75 | 1020.8 |
| 20260906142856 | 20 | 250 | 6.4 | 12.9 | 0.00 | 0.00 | 0.00 | 75 | 1020.7 |
| 20260906142355 | 20 | 292 | 4.8 | 8.0 | 0.00 | 0.00 | 0.00 | 76 | 1020.8 |
| 20260906141851 | 19 | 340 | 1.6 | 8.0 | 0.00 | 0.00 | 0.00 | 78 | 1020.9 |
| 20260906141350 | 18 | 285 | 8.0 | 11.3 | 0.00 | 0.00 | 0.00 | 79 | 1020.7 |
| 20260906140850 | 18 | 265 | 11.3 | 14.5 | 0.00 | 0.00 | 0.00 | 80 | 1020.9 |
| 20260906140345 | 18 | 302 | 6.4 | 12.9 | 0.00 | 0.00 | 0.00 | 80 | 1021.0 |
| 20260906135842 | 18 | 283 | 4.8 | 6.4 | 0.00 | 0.00 | 0.00 | 81 | 1020.7 |
| 20260906135337 | 18 | 308 | 4.8 | 8.0 | 0.00 | 0.00 | 0.00 | 82 | 1020.7 |
| 20260906134832 | 18 | 270 | 6.4 | 11.3 | 0.00 | 0.00 | 0.00 | 82 | 1020.8 |
| 20260906134327 | 17 | 285 | 9.7 | 14.5 | 0.00 | 0.00 | 0.00 | 83 | 1020.5 |
| 20260906133823 | 17 | 290 | 3.2 | 11.3 | 0.00 | 0.00 | 0.00 | 83 | 1021.0 |
| 20260906133318 | 17 | 289 | 1.6 | 9.7 | 0.00 | 0.00 | 0.00 | 83 | 1020.7 |
| 20260906132814 | 17 | 246 | 6.4 | 8.0 | 0.00 | 0.00 | 0.00 | 83 | 1020.7 |
| 20260906132309 | 17 | 263 | 6.4 | 9.7 | 0.00 | 0.00 | 0.00 | 84 | 1020.9 |
| 20260906131804 | 17 | 267 | 4.8 | 9.7 | 0.00 | 0.00 | 0.00 | 85 | 1020.7 |
| 20260906131259 | 17 | 234 | 6.4 | 8.0 | 0.00 | 0.00 | 0.00 | 85 | 1020.5 |
| 20260906130755 | 16 | 247 | 4.8 | 6.4 | 0.00 | 0.00 | 0.00 | 85 | 1020.4 |
| 20260906130250 | 16 | 244 | 4.8 | 8.0 | 0.00 | 0.00 | 0.00 | 86 | 1020.3 |
| 20260906125749 | 16 | 218 | 4.8 | 4.8 | 0.00 | 0.00 | 0.00 | 86 | 1020.4 |
| 20260906125246 | 16 | 192 | 0.0 | 4.8 | 0.00 | 0.00 | 0.00 | 86 | 1020.3 |
| 20260906124741 | 16 | 29 | 0.0 | 1.6 | 0.00 | 0.00 | 0.00 | 86 | 1020.4 |
| 20260906124237 | 16 | 322 | 0.0 | 6.4 | 0.00 | 0.00 | 0.00 | 86 | 1020.3 |
| 20260906123735 | 16 | 263 | 4.8 | 6.4 | 0.00 | 0.00 | 0.00 | 86 | 1020.2 |
| 20260906123231 | 16 | 351 | 0.0 | 4.8 | 0.00 | 0.00 | 0.00 | 86 | 1020.1 |
| 20260906122731 | 16 | 328 | 4.8 | 8.0 | 0.00 | 0.00 | 0.00 | 86 | 1020.3 |
| 20260906122226 | 16 | 261 | 4.8 | 6.4 | 0.00 | 0.00 | 0.00 | 85 | 1020.3 |
| 20260906121722 | 16 | 252 | 3.2 | 6.4 | 0.00 | 0.00 | 0.00 | 86 | 1020.3 |
| 20260906121219 | 16 | 349 | 4.8 | 4.8 | 0.00 | 0.00 | 0.00 | 86 | 1020.3 |
| 20260906120714 | 16 | 8 | 0.0 | 4.8 | 0.00 | 0.00 | 0.00 | 85 | 1020.2 |
| 20260906120211 | 16 | 299 | 3.2 | 4.8 | 0.00 | 0.00 | 0.00 | 85 | 1020.3 |
| 20260906115706 | 16 | 299 | 6.4 | 6.4 | 0.00 | 0.00 | 0.00 | 84 | 1020.2 |
| 20260906115201 | 16 | 57 | 0.0 | 8.0 | 0.00 | 0.00 | 0.00 | 83 | 1019.8 |
| 20260906114700 | 16 | 311 | 0.0 | 11.3 | 0.00 | 0.00 | 0.00 | 81 | 1020.2 |
| 20260906114155 | 17 | 0 | 0.0 | 6.4 | 0.00 | 0.00 | 0.00 | 80 | 1020.2 |
| 20260906113655 | 17 | 294 | 1.6 | 6.4 | 0.00 | 0.00 | 0.00 | 79 | 1020.3 |
| 20260906113155 | 17 | 356 | 3.2 | 6.4 | 0.00 | 0.00 | 0.00 | 79 | 1020.0 |
| 20260906112654 | 17 | 266 | 4.8 | 4.8 | 0.00 | 0.00 | 0.00 | 79 | 1020.2 |
| 20260906112152 | 17 | 345 | 1.6 | 4.8 | 0.00 | 0.00 | 0.00 | 78 | 1020.1 |
| 20260906111651 | 17 | 194 | 0.0 | 3.2 | 0.00 | 0.00 | 0.00 | 78 | 1020.2 |
| 20260906111145 | 17 | 312 | 3.2 | 3.2 | 0.00 | 0.00 | 0.00 | 78 | 1020.3 |
| 20260906110641 | 17 | 11 | 0.0 | 4.8 | 0.00 | 0.00 | 0.00 | 77 | 1020.2 |
| 20260906110136 | 17 | 0 | 0.0 | 4.8 | 0.00 | 0.00 | 0.00 | 78 | 1020.0 |
| 20260906105630 | 17 | 330 | 3.2 | 4.8 | 0.00 | 0.00 | 0.00 | 77 | 1020.1 |
| 20260906105126 | 17 | 23 | 1.6 | 3.2 | 0.00 | 0.00 | 0.00 | 73 | 1019.8 |
| 20260906104626 | 17 | 0 | 0.0 | 4.8 | 0.00 | 0.00 | 0.00 | 70 | 1019.8 |
| 20260906104125 | 17 | 306 | 0.0 | 1.6 | 0.00 | 0.00 | 0.00 | 73 | 1019.8 |
| 20260906103623 | 17 | 0 | 0.0 | 4.8 | 0.00 | 0.00 | 0.00 | 72 | 1019.7 |
| 20260906103119 | 17 | 23 | 0.0 | 1.6 | 0.00 | 0.00 | 0.00 | 73 | 1019.8 |
| 20260906102614 | 17 | 187 | 1.6 | 3.2 | 0.00 | 0.00 | 0.00 | 73 | 1019.6 |
| 20260906102109 | 17 | 331 | 0.0 | 1.6 | 0.00 | 0.00 | 0.00 | 73 | 1019.8 |
| 20260906101608 | 17 | 11 | 3.2 | 3.2 | 0.00 | 0.00 | 0.00 | 73 | 1019.6 |
| 20260906101109 | 18 | 206 | 0.0 | 1.6 | 0.00 | 0.00 | 0.00 | 73 | 1019.4 |
| 20260906100604 | 18 | 254 | 0.0 | 4.8 | 0.00 | 0.00 | 0.00 | 72 | 1019.5 |
| 20260906100104 | 18 | 6 | 0.0 | 4.8 | 0.00 | 0.00 | 0.00 | 72 | 1019.6 |
| 20260906095604 | 18 | 313 | 4.8 | 8.0 | 0.00 | 0.00 | 0.00 | 70 | 1019.8 |
| 20260906095100 | 18 | 303 | 4.8 | 6.4 | 0.00 | 0.00 | 0.00 | 67 | 1019.6 |
| 20260906094558 | 18 | 270 | 0.0 | 3.2 | 0.00 | 0.00 | 0.00 | 68 | 1020.0 |
| 20260906094055 | 18 | 16 | 0.0 | 3.2 | 0.00 | 0.00 | 0.00 | 66 | 1019.8 |
| 20260906093550 | 19 | 354 | 0.0 | 1.6 | 0.00 | 0.00 | 0.00 | 66 | 1019.6 |
| 20260906093045 | 19 | 307 | 0.0 | 3.2 | 0.00 | 0.00 | 0.00 | 66 | 1019.8 |
| 20260906092540 | 18 | 165 | 0.0 | 0.0 | 0.00 | 0.00 | 0.00 | 67 | 1020.0 |
| 20260906092035 | 18 | 120 | 0.0 | 0.0 | 0.00 | 0.00 | 0.00 | 67 | 1019.7 |
| 20260906091531 | 18 | 276 | 0.0 | 3.2 | 0.00 | 0.00 | 0.00 | 66 | 1019.7 |
| 20260906091027 | 19 | 12 | 1.6 | 3.2 | 0.00 | 0.00 | 0.00 | 65 | 1019.5 |
| 20260906090522 | 19 | 26 | 3.2 | 4.8 | 0.00 | 0.00 | 0.00 | 63 | 1019.5 |
| 20260906090017 | 19 | 0 | 1.6 | 1.6 | 0.00 | 0.00 | 0.00 | 63 | 1019.1 |
| 20260906085515 | 20 | 60 | 0.0 | 1.6 | 0.00 | 0.00 | 0.00 | 62 | 1019.4 |
| 20260906085015 | 20 | 97 | 1.6 | 1.6 | 0.00 | 0.00 | 0.00 | 61 | 1019.4 |
| 20260906084510 | 20 | 82 | 0.0 | 1.6 | 0.00 | 0.00 | 0.00 | 60 | 1019.5 |
| 20260906084009 | 20 | 39 | 4.8 | 6.4 | 0.00 | 0.00 | 0.00 | 58 | 1019.5 |
| 20260906083505 | 20 | 32 | 4.8 | 4.8 | 0.00 | 0.00 | 0.00 | 56 | 1019.6 |
| 20260906083004 | 20 | 90 | 1.6 | 3.2 | 0.00 | 0.00 | 0.00 | 55 | 1019.5 |
| 20260906082459 | 21 | 75 | 0.0 | 3.2 | 0.00 | 0.00 | 0.00 | 54 | 1019.3 |
| 20260906081955 | 21 | 8 | 0.0 | 3.2 | 0.00 | 0.00 | 0.00 | 53 | 1019.6 |
| 20260906081450 | 21 | 15 | 1.6 | 1.6 | 0.00 | 0.00 | 0.00 | 52 | 1019.6 |
| 20260906080946 | 21 | 117 | 1.6 | 1.6 | 0.00 | 0.00 | 0.00 | 51 | 1019.7 |
| 20260906080443 | 21 | 81 | 0.0 | 3.2 | 0.00 | 0.00 | 0.00 | 50 | 1019.8 |
| 20260906075943 | 21 | 331 | 0.0 | 3.2 | 0.00 | 0.00 | 0.00 | 49 | 1019.7 |
| 20260906075438 | 21 | 0 | 0.0 | 1.6 | 0.00 | 0.00 | 0.00 | 47 | 1019.8 |
| 20260906074933 | 21 | 165 | 0.0 | 3.2 | 0.00 | 0.00 | 0.00 | 47 | 1019.4 |
| 20260906074432 | 21 | 166 | 0.0 | 3.2 | 0.00 | 0.00 | 0.00 | 47 | 1019.4 |
| 20260906073931 | 22 | 188 | 0.0 | 0.0 | 0.00 | 0.00 | 0.00 | 47 | 1019.3 |
| 20260906073426 | 22 | 285 | 0.0 | 4.8 | 0.00 | 0.00 | 0.00 | 45 | 1019.1 |
| 20260906072923 | 22 | 346 | 0.0 | 3.2 | 0.00 | 0.00 | 0.00 | 45 | 1019.1 |
| 20260906072418 | 22 | 279 | 0.0 | 4.8 | 0.00 | 0.00 | 0.00 | 45 | 1019.0 |
| 20260906071914 | 22 | 18 | 3.2 | 3.2 | 0.00 | 0.00 | 0.00 | 44 | 1018.8 |
| 20260906071409 | 22 | 346 | 3.2 | 4.8 | 0.00 | 0.00 | 0.00 | 43 | 1019.1 |
| 20260906070905 | 23 | 279 | 0.0 | 8.0 | 0.00 | 0.00 | 0.00 | 42 | 1018.8 |
| 20260906070401 | 23 | 270 | 3.2 | 6.4 | 0.00 | 0.00 | 0.00 | 42 | 1018.8 |
| 20260906065856 | 23 | 242 | 6.4 | 8.0 | 0.00 | 0.00 | 0.00 | 41 | 1018.8 |
| 20260906065350 | 23 | 261 | 4.8 | 11.3 | 0.00 | 0.00 | 0.00 | 41 | 1018.8 |
| 20260906064846 | 23 | 238 | 8.0 | 12.9 | 0.00 | 0.00 | 0.00 | 40 | 1018.8 |
| 20260906064343 | 23 | 232 | 9.7 | 19.3 | 0.00 | 0.00 | 0.00 | 40 | 1018.8 |
| 20260906063842 | 23 | 261 | 3.2 | 8.0 | 0.00 | 0.00 | 0.00 | 40 | 1018.7 |
| 20260906063338 | 23 | 225 | 6.4 | 11.3 | 0.00 | 0.00 | 0.00 | 40 | 1018.8 |
| 20260906062833 | 24 | 274 | 8.0 | 16.1 | 0.00 | 0.00 | 0.00 | 39 | 1019.1 |
| 20260906062332 | 24 | 297 | 8.0 | 11.3 | 0.00 | 0.00 | 0.00 | 39 | 1018.8 |
| 20260906061827 | 24 | 228 | 6.4 | 12.9 | 0.00 | 0.00 | 0.00 | 39 | 1019.3 |
| 20260906061324 | 24 | 212 | 3.2 | 12.9 | 0.00 | 0.00 | 0.00 | 39 | 1019.4 |
| 20260906060818 | 24 | 241 | 8.0 | 14.5 | 0.00 | 0.00 | 0.00 | 39 | 1019.4 |
| 20260906060316 | 24 | 216 | 4.8 | 16.1 | 0.00 | 0.00 | 0.00 | 39 | 1019.6 |
| 20260906055812 | 24 | 246 | 6.4 | 9.7 | 0.00 | 0.00 | 0.00 | 39 | 1019.5 |
| 20260906055307 | 24 | 245 | 3.2 | 9.7 | 0.00 | 0.00 | 0.00 | 39 | 1019.4 |
| 20260906054802 | 24 | 281 | 4.8 | 9.7 | 0.00 | 0.00 | 0.00 | 39 | 1019.3 |
| 20260906054258 | 24 | 268 | 8.0 | 11.3 | 0.00 | 0.00 | 0.00 | 39 | 1019.4 |
| 20260906053754 | 24 | 264 | 9.7 | 14.5 | 0.00 | 0.00 | 0.00 | 38 | 1019.3 |
| 20260906053249 | 24 | 319 | 3.2 | 14.5 | 0.00 | 0.00 | 0.00 | 38 | 1019.1 |
| 20260906052744 | 24 | 315 | 0.0 | 14.5 | 0.00 | 0.00 | 0.00 | 39 | 1019.1 |
| 20260906052240 | 24 | 272 | 8.0 | 16.1 | 0.00 | 0.00 | 0.00 | 40 | 1019.4 |
| 20260906051738 | 24 | 283 | 8.0 | 9.7 | 0.00 | 0.00 | 0.00 | 42 | 1019.4 |
| 20260906051237 | 24 | 257 | 1.6 | 4.8 | 0.00 | 0.00 | 0.00 | 41 | 1019.7 |
| 20260906050732 | 24 | 296 | 4.8 | 6.4 | 0.00 | 0.00 | 0.00 | 40 | 1019.7 |
| 20260906050227 | 24 | 266 | 4.8 | 4.8 | 0.00 | 0.00 | 0.00 | 39 | 1019.6 |
| 20260906045726 | 24 | 307 | 3.2 | 6.4 | 0.00 | 0.00 | 0.00 | 40 | 1019.6 |
| 20260906045221 | 24 | 279 | 0.0 | 6.4 | 0.00 | 0.00 | 0.00 | 40 | 1019.6 |
| 20260906044716 | 24 | 300 | 3.2 | 4.8 | 0.00 | 0.00 | 0.00 | 39 | 1019.8 |
| 20260906044212 | 23 | 180 | 0.0 | 0.0 | 0.00 | 0.00 | 0.00 | 39 | 1019.7 |
| 20260906043708 | 24 | 170 | 0.0 | 3.2 | 0.00 | 0.00 | 0.00 | 39 | 1019.8 |
| 20260906043204 | 25 | 162 | 1.6 | 3.2 | 0.00 | 0.00 | 0.00 | 39 | 1019.7 |
| 20260906042703 | 24 | 15 | 0.0 | 4.8 | 0.00 | 0.00 | 0.00 | 36 | 1019.7 |
| 20260906042203 | 25 | 125 | 3.2 | 6.4 | 0.00 | 0.00 | 0.00 | 36 | 1020.0 |
| 20260906041658 | 24 | 127 | 4.8 | 6.4 | 0.00 | 0.00 | 0.00 | 36 | 1020.0 |
| 20260906041153 | 24 | 23 | 0.0 | 3.2 | 0.00 | 0.00 | 0.00 | 37 | 1019.5 |
| 20260906040649 | 24 | 139 | 9.7 | 11.3 | 0.00 | 0.00 | 0.00 | 36 | 1019.4 |
| 20260906040144 | 24 | 19 | 4.8 | 6.4 | 0.00 | 0.00 | 0.00 | 36 | 1018.9 |
| 20260906035645 | 24 | 342 | 1.6 | 4.8 | 0.00 | 0.00 | 0.00 | 37 | 1018.8 |
| 20260906035140 | 24 | 15 | 4.8 | 4.8 | 0.00 | 0.00 | 0.00 | 36 | 1018.7 |
| 20260906034636 | 24 | 19 | 3.2 | 4.8 | 0.00 | 0.00 | 0.00 | 36 | 1019.0 |
| 20260906034135 | 24 | 19 | 3.2 | 3.2 | 0.00 | 0.00 | 0.00 | 36 | 1018.8 |
| 20260906033632 | 24 | 49 | 3.2 | 3.2 | 0.00 | 0.00 | 0.00 | 36 | 1018.9 |
| 20260906033132 | 24 | 6 | 0.0 | 3.2 | 0.00 | 0.00 | 0.00 | 36 | 1018.7 |
| 20260906032629 | 24 | 23 | 1.6 | 3.2 | 0.00 | 0.00 | 0.00 | 36 | 1018.5 |
| 20260906032128 | 25 | 41 | 3.2 | 3.2 | 0.00 | 0.00 | 0.00 | 35 | 1018.8 |
| 20260906031624 | 25 | 66 | 4.8 | 4.8 | 0.00 | 0.00 | 0.00 | 35 | 1018.7 |
| 20260906031119 | 25 | 337 | 1.6 | 1.6 | 0.00 | 0.00 | 0.00 | 35 | 1018.7 |
| 20260906030618 | 25 | 0 | 0.0 | 0.0 | 0.00 | 0.00 | 0.00 | 34 | 1018.0 |
| 20260906030114 | 25 | 352 | 0.0 | 1.6 | 0.00 | 0.00 | 0.00 | 34 | 1018.0 |
| 20260906025613 | 25 | 26 | 1.6 | 6.4 | 0.00 | 0.00 | 0.00 | 33 | 1018.0 |
| 20260906025112 | 25 | 74 | 0.0 | 3.2 | 0.00 | 0.00 | 0.00 | 33 | 1018.1 |
| 20260906024607 | 25 | 74 | 0.0 | 3.2 | 0.00 | 0.00 | 0.00 | 33 | 1018.1 |
| 20260906024101 | 26 | 32 | 3.2 | 4.8 | 0.00 | 0.00 | 0.00 | 32 | 1018.2 |
| 20260906023558 | 26 | 77 | 1.6 | 3.2 | 0.00 | 0.00 | 0.00 | 32 | 1018.1 |
| 20260906023057 | 26 | 98 | 0.0 | 0.0 | 0.00 | 0.00 | 0.00 | 32 | 1018.2 |
| 20260906022553 | 26 | 341 | 0.0 | 3.2 | 0.00 | 0.00 | 0.00 | 31 | 1018.2 |
| 20260906022048 | 27 | 270 | 0.0 | 3.2 | 0.00 | 0.00 | 0.00 | 31 | 1018.1 |
| 20260906021544 | 27 | 346 | 0.0 | 4.8 | 0.00 | 0.00 | 0.00 | 30 | 1018.1 |
| 20260906021043 | 27 | 294 | 0.0 | 4.8 | 0.00 | 0.00 | 0.00 | 30 | 1018.0 |
| 20260906020542 | 27 | 270 | 0.0 | 4.8 | 0.00 | 0.00 | 0.00 | 30 | 1017.6 |
| 20260906020042 | 27 | 319 | 3.2 | 4.8 | 0.00 | 0.00 | 0.00 | 29 | 1017.7 |
| 20260906015542 | 27 | 280 | 3.2 | 9.7 | 0.00 | 0.00 | 0.00 | 29 | 1017.5 |
| 20260906015041 | 27 | 315 | 3.2 | 4.8 | 0.00 | 0.00 | 0.00 | 29 | 1017.4 |
| 20260906014536 | 28 | 307 | 4.8 | 12.9 | 0.00 | 0.00 | 0.00 | 28 | 1017.3 |
| 20260906014032 | 28 | 0 | 3.2 | 9.7 | 0.00 | 0.00 | 0.00 | 28 | 1017.4 |
| 20260906013527 | 28 | 312 | 6.4 | 14.5 | 0.00 | 0.00 | 0.00 | 27 | 1017.0 |
| 20260906013023 | 28 | 328 | 3.2 | 11.3 | 0.00 | 0.00 | 0.00 | 27 | 1017.1 |
| 20260906012518 | 29 | 280 | 8.0 | 8.0 | 0.00 | 0.00 | 0.00 | 26 | 1017.0 |
| 20260906012017 | 28 | 0 | 0.0 | 1.6 | 0.00 | 0.00 | 0.00 | 26 | 1017.3 |
| 20260906011514 | 29 | 331 | 0.0 | 1.6 | 0.00 | 0.00 | 0.00 | 26 | 1016.7 |
| 20260906011013 | 29 | 312 | 0.0 | 4.8 | 0.00 | 0.00 | 0.00 | 26 | 1016.9 |
| 20260906010508 | 30 | 0 | 0.0 | 1.6 | 0.00 | 0.00 | 0.00 | 26 | 1016.9 |
| 20260906010004 | 30 | 352 | 0.0 | 3.2 | 0.00 | 0.00 | 0.00 | 25 | 1016.8 |
| 20260906005503 | 30 | 307 | 4.8 | 4.8 | 0.00 | 0.00 | 0.00 | 24 | 1016.9 |
| 20260906005002 | 30 | 356 | 0.0 | 6.4 | 0.00 | 0.00 | 0.00 | 24 | 1017.0 |
| 20260906004457 | 30 | 348 | 0.0 | 8.0 | 0.00 | 0.00 | 0.00 | 24 | 1017.0 |
| 20260906003952 | 30 | 315 | 3.2 | 4.8 | 0.00 | 0.00 | 0.00 | 24 | 1017.0 |
| 20260906003447 | 31 | 15 | 0.0 | 4.8 | 0.00 | 0.00 | 0.00 | 24 | 1017.1 |
| 20260906002943 | 31 | 323 | 3.2 | 4.8 | 0.00 | 0.00 | 0.00 | 22 | 1017.0 |
| 20260906002442 | 32 | 0 | 0.0 | 4.8 | 0.00 | 0.00 | 0.00 | 22 | 1016.9 |
| 20260906001938 | 33 | 301 | 6.4 | 8.0 | 0.00 | 0.00 | 0.00 | 20 | 1016.9 |
| 20260906001434 | 33 | 0 | 3.2 | 4.8 | 0.00 | 0.00 | 0.00 | 21 | 1016.9 |
| 20260906000928 | 33 | 320 | 0.0 | 3.2 | 0.00 | 0.00 | 0.00 | 21 | 1016.9 |
| 20260906000425 | 33 | 11 | 0.0 | 3.2 | 0.00 | 0.00 | 0.00 | 21 | 1016.8 |
| 20260905235919 | 33 | 352 | 0.0 | 3.2 | 0.00 | 0.00 | 0.00 | 21 | 1016.9 |
| 20260905235418 | 33 | 344 | 3.2 | 4.8 | 0.00 | 0.00 | 0.00 | 21 | 1016.7 |
| 20260905234913 | 33 | 342 | 3.2 | 6.4 | 0.00 | 0.00 | 0.00 | 21 | 1016.8 |
| 20260905234409 | 33 | 26 | 4.8 | 4.8 | 0.00 | 0.00 | 0.00 | 20 | 1016.9 |
| 20260905233903 | 33 | 326 | 0.0 | 4.8 | 0.00 | 0.00 | 0.00 | 20 | 1016.7 |
| 20260905233358 | 33 | 315 | 6.4 | 9.7 | 0.00 | 0.00 | 0.00 | 21 | 1016.7 |
| 20260905232857 | 33 | 279 | 3.2 | 6.4 | 0.00 | 0.00 | 0.00 | 20 | 1016.8 |
| 20260905232354 | 33 | 0 | 3.2 | 4.8 | 0.00 | 0.00 | 0.00 | 21 | 1016.8 |
| 20260905231849 | 33 | 310 | 4.8 | 6.4 | 0.00 | 0.00 | 0.00 | 20 | 1016.7 |
| 20260905231350 | 34 | 4 | 3.2 | 6.4 | 0.00 | 0.00 | 0.00 | 20 | 1016.7 |
| 20260905230847 | 33 | 282 | 0.0 | 6.4 | 0.00 | 0.00 | 0.00 | 20 | 1016.9 |
| 20260905230344 | 33 | 42 | 4.8 | 8.0 | 0.00 | 0.00 | 0.00 | 21 | 1016.7 |
| 20260905225843 | 33 | 286 | 1.6 | 9.7 | 0.00 | 0.00 | 0.00 | 21 | 1016.5 |
| 20260905225339 | 33 | 0 | 3.2 | 8.0 | 0.00 | 0.00 | 0.00 | 21 | 1016.7 |
| 20260905224834 | 33 | 180 | 1.6 | 3.2 | 0.00 | 0.00 | 0.00 | 21 | 1016.8 |
| 20260905224329 | 32 | 350 | 3.2 | 4.8 | 0.00 | 0.00 | 0.00 | 22 | 1016.8 |
| 20260905223824 | 33 | 68 | 3.2 | 4.8 | 0.00 | 0.00 | 0.00 | 21 | 1016.4 |
| 20260905223322 | 33 | 294 | 0.0 | 4.8 | 0.00 | 0.00 | 0.00 | 22 | 1016.5 |
| 20260905222817 | 32 | 297 | 0.0 | 9.7 | 0.00 | 0.00 | 0.00 | 22 | 1016.7 |
| 20260905222315 | 33 | 345 | 0.0 | 8.0 | 0.00 | 0.00 | 0.00 | 22 | 1016.5 |
| 20260905221812 | 33 | 285 | 6.4 | 11.3 | 0.00 | 0.00 | 0.00 | 21 | 1016.8 |
| 20260905221309 | 33 | 274 | 8.0 | 8.0 | 0.00 | 0.00 | 0.00 | 21 | 1016.8 |
| 20260905220803 | 32 | 345 | 0.0 | 6.4 | 0.00 | 0.00 | 0.00 | 23 | 1016.8 |
| 20260905220300 | 32 | 303 | 3.2 | 8.0 | 0.00 | 0.00 | 0.00 | 22 | 1017.0 |
| 20260905215759 | 31 | 296 | 9.7 | 9.7 | 0.00 | 0.00 | 0.00 | 22 | 1016.8 |
| 20260905215255 | 32 | 337 | 3.2 | 8.0 | 0.00 | 0.00 | 0.00 | 22 | 1017.1 |
| 20260905214750 | 32 | 9 | 3.2 | 9.7 | 0.00 | 0.00 | 0.00 | 23 | 1017.0 |